Santa Fe, NM

4:17 PM MST on December 18, 2017 (GMT -0700)
Santa Fe Municipal

Weather History for KSAF - April, 2013

Change the Weather History Date:

Sunday, April 7, 2013

  Actual Average Record
Temperature  
Mean Temperature 55 °F -  
Max Temperature 72 °F 0 °F 75 °F (2017)
Min Temperature 39 °F - 25 °F (1964)
Degree Days  
Heating Degree Days 10    
Growing Degree Days 5 (Base 50)    
Moisture  
Dew Point 16 °F    
Average Humidity 22    
Maximum Humidity 43    
Minimum Humidity 10    
Precipitation  
Precipitation 0.00 in - - ()
Sea Level Pressure  
Sea Level Pressure 29.66 in    
Wind  
Wind Speed 9 mph (WNW)    
Max Wind Speed 23 mph    
Max Gust Speed 34 mph    
Visibility 10 miles    
Events      
Averages and records for this station are not official NWS values.
T = Trace of Precipitation, MM = Missing Value Source: NWS Daily Summary

Daily Weather History Graph

Daily Weather History Graph

Search for Another Location

Airport or City:

Trip Planner

Search our weather history database for the weather conditions in past years. The results will help you decide how hot, cold, wet, or windy it might be!

Date:

Astronomy

Apr. 07, 2013 Rise Set
Actual Time 6:42 AM MDT 7:31 PM MDT
Civil Twilight 6:16 AM MDT 7:57 PM MDT
Nautical Twilight 5:45 AM MDT 8:27 PM MDT
Astronomical Twilight 5:14 AM MDT 8:59 PM MDT
Moon 4:56 AM MDT (4/7) 5:10 PM MDT (4/7)
Length of Visible Light 13h 41m
Length of Day
12h 49m
Waning Crescent, 8% of the Moon is Illuminated
Apr 7
Waning Crescent
Apr 10
New
Apr 18
First Quarter
Apr 25
Full
May 2
Last Quarter

Hourly Weather History & Observations

Time (MDT) Temp. Windchill Dew Point Humidity Pressure Visibility Wind Dir Wind Speed Gust Speed Precip Events Conditions
12:53 AM 53.1 °F - 18.0 °F 25% 29.70 in 10.0 mi North 5.8 mph - N/A   Partly Cloudy
1:53 AM 54.0 °F - 19.9 °F 26% 29.68 in 10.0 mi North 9.2 mph - N/A   Clear
2:53 AM 50.0 °F - 19.9 °F 31% 29.67 in 10.0 mi North 6.9 mph - N/A   Clear
3:53 AM 46.9 °F - 19.9 °F 34% 29.68 in 10.0 mi NW 5.8 mph - N/A   Clear
4:53 AM 46.0 °F 44.8 °F 19.0 °F 34% 29.68 in 10.0 mi NNE 3.5 mph - N/A   Clear
5:53 AM 43.0 °F 39.5 °F 19.0 °F 38% 29.72 in 10.0 mi North 5.8 mph - N/A   Clear
6:53 AM 39.0 °F 35.7 °F 18.0 °F 43% 29.73 in 10.0 mi North 4.6 mph - N/A   Clear
7:53 AM 46.9 °F - 19.9 °F 34% 29.74 in 10.0 mi South 3.5 mph - N/A   Clear
8:53 AM 53.1 °F - 21.9 °F 30% 29.74 in 10.0 mi SW 6.9 mph - N/A   Scattered Clouds
9:53 AM 59.0 °F - 21.9 °F 24% 29.72 in 10.0 mi SW 15.0 mph - N/A   Clear
10:53 AM 64.9 °F - 19.0 °F 17% 29.70 in 10.0 mi West 15.0 mph 23.0 mph N/A   Clear
11:53 AM 66.0 °F - 18.0 °F 16% 29.68 in 10.0 mi WSW 18.4 mph 32.2 mph N/A   Clear
12:53 PM 68.0 °F - 18.0 °F 15% 29.64 in 10.0 mi SW 16.1 mph 31.1 mph N/A   Clear
1:53 PM 69.1 °F - 16.0 °F 13% 29.61 in 10.0 mi West 12.7 mph 32.2 mph N/A   Clear
2:53 PM 71.1 °F - 12.9 °F 11% 29.60 in 9.0 mi West 20.7 mph 34.5 mph N/A   Clear
3:53 PM 71.1 °F - 10.9 °F 10% 29.59 in 10.0 mi WSW 15.0 mph 32.2 mph N/A   Clear
4:53 PM 70.0 °F - 10.0 °F 10% 29.58 in 10.0 mi West 23.0 mph 31.1 mph N/A   Clear
5:53 PM 66.9 °F - 9.0 °F 10% 29.61 in 10.0 mi WSW 15.0 mph 25.3 mph N/A   Clear
6:53 PM 64.9 °F - 10.0 °F 12% 29.65 in 10.0 mi WNW 15.0 mph 23.0 mph N/A   Clear
7:53 PM 61.0 °F - 10.0 °F 13% 29.64 in 10.0 mi NW 6.9 mph - N/A   Clear
8:53 PM 55.9 °F - 10.9 °F 17% 29.64 in 10.0 mi NNE 4.6 mph - N/A   Clear
9:53 PM 52.0 °F - 12.0 °F 20% 29.64 in 10.0 mi North 5.8 mph - N/A   Clear
10:53 PM 52.0 °F - 12.0 °F 20% 29.61 in 10.0 mi Calm Calm - N/A   Clear
11:53 PM 50.0 °F - 12.0 °F 22% 29.59 in 10.0 mi East 5.8 mph - N/A   Clear